Time,TemperatureF,DewpointF,PressureIn,WindDirection,WindDirectionDegrees,WindSpeedMPH,WindSpeedGustMPH,Humidity,HourlyPrecipIn,Conditions,Clouds,dailyrainin,SolarRadiationWatts/m^2,SoftwareType,DateUTC
2015-03-05 00:01:00,34.4,33.0,28.99,North,360,4.0,6.0,97,0.00,,,0.00,0,Rainwise IP-100,2015-03-05 05:01:00,
2015-03-05 00:06:00,34.4,33.0,28.99,NNW,337,4.0,8.0,97,0.00,,,0.00,0,Rainwise IP-100,2015-03-05 05:06:00,
2015-03-05 00:11:00,34.4,33.0,28.99,North,360,2.0,7.0,96,0.00,,,0.00,0,Rainwise IP-100,2015-03-05 05:11:00,
2015-03-05 00:16:00,34.4,33.0,28.98,North,360,3.0,9.0,96,0.00,,,0.00,0,Rainwise IP-100,2015-03-05 05:16:00,
2015-03-05 00:21:00,34.3,33.0,28.99,North,360,3.0,7.0,96,0.00,,,0.00,0,Rainwise IP-100,2015-03-05 05:21:00,
2015-03-05 00:26:00,34.2,33.0,28.99,North,360,1.0,5.0,96,0.00,,,0.00,0,Rainwise IP-100,2015-03-05 05:26:00,
2015-03-05 00:31:00,34.1,33.0,28.99,North,360,3.0,6.0,96,0.00,,,0.00,0,Rainwise IP-100,2015-03-05 05:31:00,
2015-03-05 00:36:00,34.1,33.0,28.99,North,360,4.0,5.0,96,0.00,,,0.00,0,Rainwise IP-100,2015-03-05 05:36:00,
2015-03-05 00:41:00,33.9,33.0,28.99,North,360,3.0,6.0,96,0.00,,,0.00,0,Rainwise IP-100,2015-03-05 05:41:00,
2015-03-05 00:46:00,33.9,33.0,29.00,North,360,4.0,7.0,96,0.00,,,0.00,0,Rainwise IP-100,2015-03-05 05:46:00,
2015-03-05 00:51:00,33.9,33.0,29.01,NNW,337,3.0,9.0,96,0.00,,,0.00,0,Rainwise IP-100,2015-03-05 05:51:00,
2015-03-05 00:56:00,34.1,33.0,29.00,NNW,337,4.0,8.0,95,0.00,,,0.00,0,Rainwise IP-100,2015-03-05 05:56:00,
2015-03-05 01:01:00,34.1,33.0,29.00,NNW,337,2.0,6.0,94,0.00,,,0.00,0,Rainwise IP-100,2015-03-05 06:01:00,
2015-03-05 01:06:00,34.1,33.0,29.00,NNW,337,0.0,4.0,94,0.00,,,0.00,0,Rainwise IP-100,2015-03-05 06:06:00,
2015-03-05 01:11:00,33.9,33.0,29.00,NNW,337,1.0,5.0,94,0.00,,,0.00,0,Rainwise IP-100,2015-03-05 06:11:00,
2015-03-05 01:17:00,33.9,33.0,28.99,NW,315,6.0,8.0,95,0.00,,,0.00,0,Rainwise IP-100,2015-03-05 06:17:00,
2015-03-05 01:22:00,33.8,33.0,28.99,North,360,9.0,11.0,93,0.00,,,0.00,0,Rainwise IP-100,2015-03-05 06:22:00,
2015-03-05 01:27:00,33.8,32.0,28.99,NW,315,5.0,11.0,91,0.00,,,0.00,0,Rainwise IP-100,2015-03-05 06:27:00,
2015-03-05 01:32:00,33.8,32.0,28.99,North,360,6.0,10.0,88,0.00,,,0.00,0,Rainwise IP-100,2015-03-05 06:32:00,
2015-03-05 01:37:00,33.9,31.0,28.99,NNW,337,6.0,13.0,87,0.00,,,0.00,0,Rainwise IP-100,2015-03-05 06:37:00,
2015-03-05 01:42:00,33.9,31.0,29.00,North,360,6.0,10.0,86,0.00,,,0.00,0,Rainwise IP-100,2015-03-05 06:42:00,
2015-03-05 01:47:00,33.8,31.0,29.00,North,360,9.0,9.0,85,0.00,,,0.00,0,Rainwise IP-100,2015-03-05 06:47:00,
2015-03-05 01:52:00,33.8,29.0,29.00,NW,315,6.0,10.0,82,0.00,,,0.00,0,Rainwise IP-100,2015-03-05 06:52:00,
2015-03-05 01:57:00,33.8,29.0,29.00,NW,315,13.0,13.0,79,0.00,,,0.00,0,Rainwise IP-100,2015-03-05 06:57:00,
2015-03-05 02:02:00,33.9,28.0,29.00,North,360,12.0,27.0,74,0.00,,,0.00,0,Rainwise IP-100,2015-03-05 07:02:00,
2015-03-05 02:07:00,33.9,26.0,29.00,NNW,337,15.0,19.0,68,0.00,,,0.00,0,Rainwise IP-100,2015-03-05 07:07:00,
2015-03-05 02:13:00,33.9,24.0,29.00,North,360,6.0,18.0,66,0.00,,,0.00,0,Rainwise IP-100,2015-03-05 07:13:00,
2015-03-05 02:18:00,33.8,24.0,29.00,NW,315,9.0,15.0,67,0.00,,,0.00,0,Rainwise IP-100,2015-03-05 07:18:00,
2015-03-05 02:23:00,33.7,24.0,29.00,NNW,337,1.0,13.0,67,0.00,,,0.00,0,Rainwise IP-100,2015-03-05 07:23:00,
2015-03-05 02:28:00,33.5,26.0,29.00,NW,315,6.0,10.0,68,0.00,,,0.00,0,Rainwise IP-100,2015-03-05 07:28:00,
2015-03-05 02:33:00,33.4,24.0,29.00,North,360,8.0,16.0,66,0.00,,,0.00,0,Rainwise IP-100,2015-03-05 07:33:00,
2015-03-05 02:38:00,33.3,24.0,29.00,NW,315,5.0,12.0,66,0.00,,,0.00,0,Rainwise IP-100,2015-03-05 07:38:00,
2015-03-05 02:43:00,33.2,24.0,29.00,NNW,337,9.0,15.0,67,0.00,,,0.00,0,Rainwise IP-100,2015-03-05 07:43:00,
2015-03-05 02:48:00,33.1,24.0,29.00,NW,315,10.0,12.0,68,0.00,,,0.00,0,Rainwise IP-100,2015-03-05 07:48:00,
2015-03-05 02:53:00,32.9,24.0,29.00,NNW,337,7.0,16.0,68,0.00,,,0.00,0,Rainwise IP-100,2015-03-05 07:53:00,
2015-03-05 02:59:00,32.7,24.0,28.99,North,360,7.0,15.0,69,0.00,,,0.00,0,Rainwise IP-100,2015-03-05 07:59:00,
2015-03-05 03:04:00,32.5,24.0,28.99,NW,315,7.0,20.0,71,0.00,,,0.00,0,Rainwise IP-100,2015-03-05 08:04:00,
2015-03-05 03:09:00,32.3,24.0,28.99,NNW,337,12.0,19.0,70,0.00,,,0.00,0,Rainwise IP-100,2015-03-05 08:09:00,
2015-03-05 03:14:00,32.3,24.0,29.00,NNW,337,7.0,15.0,71,0.00,,,0.00,0,Rainwise IP-100,2015-03-05 08:14:00,
2015-03-05 03:19:00,32.2,24.0,29.01,NNW,337,9.0,13.0,72,0.00,,,0.00,0,Rainwise IP-100,2015-03-05 08:19:00,
2015-03-05 03:24:00,32.1,24.0,29.01,North,360,3.0,12.0,72,0.00,,,0.00,0,Rainwise IP-100,2015-03-05 08:24:00,
2015-03-05 03:29:00,32.1,24.0,29.01,North,360,9.0,16.0,72,0.00,,,0.00,0,Rainwise IP-100,2015-03-05 08:29:00,
2015-03-05 03:34:00,32.0,24.0,29.02,NW,315,6.0,19.0,73,0.00,,,0.00,0,Rainwise IP-100,2015-03-05 08:34:00,
2015-03-05 03:39:00,31.9,24.0,29.02,NNW,337,12.0,17.0,73,0.00,,,0.00,0,Rainwise IP-100,2015-03-05 08:39:00,
2015-03-05 03:44:00,31.9,24.0,29.02,North,360,7.0,19.0,73,0.00,,,0.00,0,Rainwise IP-100,2015-03-05 08:44:00,